This demonstration page uses our WeatherBlox Daily Observations layout. Learn more.

Left ArrowRight Arrow

31.84235, -102.49876

Hourly Observations for August 16, 2022

Temp ( °F °C ) Dew Point ( °F °C ) Humidity (%) Winds ( mph kmh ) Pressure ( in mb ) Visibility ( mi km ) Precip ( " mm )
12:53 am 00:53 Clear 77 25 61 16.1 58 58 SSE 10 17 29.91 1013 10 16 0.00 0.00
1:53 am 01:53 Clear 77 25 60 15.6 56 56 SSE 10 17 29.90 1013 10 16 0.00 0.00
2:53 am 02:53 Clear 77 25 60 15.6 56 56 SSE 10 17 29.89 1012 10 16 0.00 0.00
3:53 am 03:53 Clear 76 24.4 60 15.6 58 58 SSE 12 19 29.87 1012 10 16 0.00 0.00
4:53 am 04:53 Clear 76 24.4 60 15.6 58 58 SE 9 15 29.86 1011 10 16 0.00 0.00
5:53 am 05:53 Clear 75 23.9 61 16.1 62 62 SSE 9 15 29.88 1012 10 16 0.00 0.00
6:53 am 06:53 Cloudy 75 23.9 62 16.7 64 64 SE 15 24 29.89 1012 10 16 0.00 0.00
7:53 am 07:53 Sunny 74 23.3 64 17.8 71 71 SSE 14 22 29.90 1013 10 16 0.00 0.00
8:53 am 08:53 Sunny 75 23.9 64 17.8 69 69 ESE 7 11 29.92 1013 10 16 0.00 0.00
9:53 am 09:53 Sunny 76 24.4 64 17.8 67 67 ESE 10 17 29.94 1014 10 16 0.00 0.00
10:53 am 10:53 Sunny 76 24.4 65 18.3 69 69 E 9 15 29.94 1014 10 16 0.00 0.00
11:53 am 11:53 Sunny 78 25.6 65 18.3 64 64 E 9 15 29.94 1014 10 16 0.00 0.00
12:53 pm 12:53 Sunny 81 27.2 65 18.3 58 58 E 13 20 29.94 1014 10 16 0.00 0.00
1:53 pm 13:53 Mostly Sunny 85 29.4 65 18.3 51 51 ESE 16 26 29.92 1013 10 16 0.00 0.00
2:53 pm 14:53 Mostly Sunny 85 29.4 64 17.8 50 50 SE 13 20 29.89 1012 10 16 0.00 0.00
3:43 pm 15:43 Partly Cloudy with Nearby Thunderstorms 80 26.7 66 18.9 62 62 SW 15 24 29.85 1011 10 16 0.00 0.00
3:55 pm 15:55 Mostly Cloudy with Thunderstorms 77 25 67 19.4 71 71 SSW 18 30 29.89 1012 9 14 0.00 0.00
4:10 pm 16:10 Mostly Cloudy with Nearby Thunderstorms 74 23.3 69 20.6 85 85 S 13 20 29.90 1012 3 4 0.03 0.76
4:17 pm 16:17 Cloudy with Thunderstorms 74 23.3 69 20.6 85 85 SW 10 17 29.88 1012 3 5 0.04 1.02
4:40 pm 16:40 Mostly Cloudy with Nearby Thunderstorms 74 23.3 70 21.1 87 87 S 6 9 29.88 1012 8 13 0.05 1.27
4:48 pm 16:48 Mostly Cloudy 75 24 70 21 83 83 S 5 7 29.87 1011 8 13 0.05 1.27
4:53 pm 16:53 Mostly Cloudy with Light Rain 75 23.9 70 21.1 84 84 SSW 7 11 29.89 1012 8 13 0.05 1.27
5:04 pm 17:04 Mostly Cloudy with Nearby Thunderstorms 75 23.9 70 21.1 84 84 SW 14 22 29.87 1011 9 14 0.01 0.13
5:32 pm 17:32 Mostly Cloudy 73 22.8 69 20.6 87 87 WSW 12 19 29.88 1012 8 13 0.01 0.13
5:53 pm 17:53 Mostly Cloudy 74 23.3 69 20.6 85 85 Calm 29.89 1012 8 13 0.01 0.13
6:53 pm 18:53 Partly Cloudy 76 24.4 70 21.1 82 82 SSE 17 28 29.91 1013 8 13 0.00 0.00
7:05 pm 19:05 Mostly Cloudy with Heavy Rain 73 22.8 64 17.8 73 73 SSE 21 33 29.89 1012 2 3 0.13 3.30
7:14 pm 19:14 Cloudy with Light Rain 72 22.2 63 17.2 73 73 S 10 17 29.88 1012 3 5 0.14 3.56
7:53 pm 19:53 Mostly Sunny 74 23.3 64 17.8 71 71 S 3 6 29.88 1012 10 16 0.14 3.56
8:53 pm 20:53 Clear 75 23.9 66 18.9 74 74 Calm 29.88 1012 10 16 0.00 0.00
9:53 pm 21:53 Clear 74 23.3 69 20.6 85 85 Calm 29.89 1012 10 16 0.00 0.00
10:53 pm 22:53 Clear 74 23.3 69 20.6 85 85 W 3 6 29.91 1013 10 16 0.00 0.00
11:53 pm 23:53 Clear 74 23.3 68 20 82 82 Calm 29.92 1013 10 16 0.00 0.00

Powered by AerisWeather